Tracking 35275 objects as of 9-Sep-2026
HD Live streaming from Space Station
objects crossing your sky now

STARLINK-33979

Track STARLINK-33979 now!
10-day predictions
STARLINK-33979 is classified as:


NORAD ID: 63867
Int'l Code: 2025-094D
Launch date: May 10, 2025
Source: United States (US)
Launch site: AIR FORCE WESTERN TEST RANGE (AFWTR)
Your satellite tracking list
Your tracking list is empty




NASA's NSSDC Master Catalog

Two Line Element Set (TLE):
1 63867U 25094D   26251.58335648  .00075056  00000-0  25909-2 0  9998
2 63867  70.0000 132.5109 0003176 271.2077 293.7189 15.29560815  5728
Source of the keplerian elements: AFSPC